Weather Roundup
Issued by NWS

Home | Current Version | Previous Version | Graphics & Text | Print | Product List | Glossary Off
Versions: 1 2 3 4 5 6 7 8 9 10 11 12 13 14 15 16 17 18 19 20 21 22 23 24 25 26 27 28 29 30 31 32 33 34 35 36 37 38 39 40 41 42 43 44 45 46 47 48 49 50

000
NZUS93 KARX 220810
HRRWXR

CURRENT HOURLY OBSERVATIONS ACROSS
MUCH OF THE UPPER MISSISSIPPI VALLEY
NATIONAL WEATHER SERVICE LA CROSSE WI
300 AM CDT TUE JUL 22 2014


...SOUTHEAST MINNESOTA...


CITY           SKY/WX    TMP DP  RH WIND       PRES   REMARKS
ROCHESTER      CLOUDY    77  72  84 S13       29.88F
ROCHESTER/MAYO FAIR      77  71  81 SE10G17   29.87S
WINONA         DRIZZLE   77  70  78 SE7       29.87F
AUSTIN         MOCLDY    79  73  83 S12       29.87S
ALBERT LEA     PTCLDY    81  75  83 S9        29.87R
DODGE CENTER   MOCLDY    79  73  83 S14G22    29.87S
PRESTON        CLOUDY    76  75  95 S14       29.91S
OWATONNA       PTCLDY    79  73  83 S9        29.85R
FARIBAULT      PTCLDY    82  73  74 S9        29.83S
$$

...ELSEWHERE IN MINNESOTA...


CITY           SKY/WX    TMP DP  RH WIND       PRES   REMARKS
MINNEAPOLIS    CLOUDY    82  76  81 S8        29.80R
INTNL FALLS    HVY RAIN  68  66  93 N5        29.70R
DULUTH         TSTM      67  64  90 SE8       29.74F FOG
RED WING       MOCLDY    79  73  83 S6        29.82F
REDWOOD FALLS  PTCLDY    77  75  93 NW12      29.83R
MANKATO        CLEAR     81  73  78 S10       29.82F
WORTHINGTON    CLEAR     79  75  89 W3        29.88R
FAIRMONT       CLEAR     79  72  78 S7        29.84S
$$

...SOUTHWEST WISCONSIN...


CITY           SKY/WX    TMP DP  RH WIND       PRES   REMARKS
LA CROSSE      CLOUDY    80  69  69 S12       29.90S
PRAIRIE DU CHI MOCLDY    79  65  63 S12       29.94F
BOSCOBEL       PTCLDY    78  68  71 S6        29.95F
LONE ROCK      CLOUDY    78  69  73 CALM      29.97S
PLATTEVILLE    CLEAR     73  69  86 S10       30.01S
FORT MC COY    CLOUDY    77  66  69 SW5       29.93S
CAMP DOUGLAS   MOCLDY    76  71  84 S7        29.94F
VIROQUA        FAIR      74  68  80 S8        29.95F
WIS DELLS      PTCLDY    73  66  78 S9        29.97S
$$

...ELSEWHERE IN WISCONSIN...


CITY           SKY/WX    TMP DP  RH WIND       PRES   REMARKS
MILWAUKEE      CLEAR     72  65  78 SW8       30.02S
MADISON        CLEAR     74  68  81 S9        29.99F
GREEN BAY      CLEAR     71  66  84 S8        29.96F
EAU CLAIRE     CLOUDY    78  71  79 S12       29.84F
BLACK RVR FLS  PTSUNNY   78  67  69 S5        29.90F
MEDFORD        CLOUDY    72  67  85 S10G16    29.90F
WAUSAU         MOCLDY    74  68  81 S10       29.91F
WIS RAPIDS     PTCLDY    75  68  78 S8        29.95F
MARSHFIELD     MOCLDY    73  68  84 S10       29.92F
RICE LAKE      CLOUDY    76  69  79 SE10      29.84F
$$

...NORTHEAST IOWA...


CITY           SKY/WX    TMP DP  RH WIND       PRES   REMARKS
WATERLOO       CLOUDY    76  70  82 S13       29.91S
DUBUQUE        CLEAR     72  69  90 S13       29.99F
DECORAH        CLOUDY    75  70  83 S9G18     29.93S
MASON CITY     MOCLDY    78  75  90 S10       29.89S
CHARLES CITY   CLOUDY    79  73  83 S13G20    29.91S
OELWEIN        CLOUDY    75  70  83 S15G22    29.95S
$$

...ELSEWHERE IN IOWA...


CITY           SKY/WX    TMP DP  RH WIND       PRES   REMARKS
DES MOINES     MOCLDY    83  74  74 S13       29.90F
IOWA CITY      CLEAR     74  69  85 S7        30.00R
FORT DODGE     MOCLDY    79  73  83 S12G20    29.88R
MARSHALLTOWN   CLOUDY    78  74  87 S12G22    29.91S
CEDAR RAPIDS   CLEAR     74  67  78 S14       29.97S
$$

...NORTHERN ILLINOIS...


CITY           SKY/WX    TMP DP  RH WIND       PRES   REMARKS
CHICAGO-OHARE  CLEAR     72  63  73 S7        30.05S
DUPAGE         CLEAR     69  65  86 S7        30.05F
CHICAGO-MIDWAY CLEAR     73  65  75 S7        30.06R
MOLINE         CLEAR     74  66  76 S9        30.00F
ROCKFORD       CLEAR     71  65  81 S10       30.04F
STERLING       PTCLDY    72  66  83 S3        30.04S
PEORIA         CLEAR     71  65  81 S7        30.06S
$$

NOTE: "FAIR" INDICATES FEW OR NO CLOUDS BELOW 12,000 FEET WITH NO
SIGNIFICANT WEATHER AND/OR OBSTRUCTIONS TO VISIBILITY. WIND
SPEEDS ARE IN MILES-PER-HOUR.



USA.gov is the U.S. government's official web portal to all federal, state and local government web resources and services.